STARLINK-11560, 62917

Orbit data source: Space-Track

STARLINK-11560, 62917 is a payload satellite owned by SpaceX/Seattle (US) in LEO that was launched on Sat, 08 Feb 2025 UTC via an FALCON 9 launch vehicle from the Air Force Eastern Test Range (AFETR). Payload-class satellites include a variety of spacecraft equipped with specific instruments for various scientific and technological missions. These include communications satellites like Starlink; space stations such as the ISS; scientific satellites like the Hubble; Earth observation satellites from companies like Planet Labs, Umbra, and HawkEye 360; GPS; miniature CubeSats for education and research; and military/defense satellites.

Loading next visibility...
Identifier
62917, 2025-027L
Orbit
LEO
Country
Flag of USUS
Related business
Manufacturer
SpaceX/Seattle
Mission
Operational Commercial Communications
Bus & Motor
STARLINK V2MD, Unknown motor
Mass
960 kg wet, ~910 kg dry
Launch date (UTC)
2025-02-08 (1 year ago)
Launch vehicle
FALCON 9
Launch site
Air Force Eastern Test Range (AFETR)
Object type
Payload
Rocket body
Debris
Shape & HBR
Box + 2 Pan, 18.1 m
Radar Cross Section
36.964 m², Medium (>0.1 m² and < 1m²)

Expand to show TLE details & history
Last TLE update: 19 hours ago

TLE from 19 hours ago
0 STARLINK-11560
1 62917U 25027L   26035.69699247  .00239529  00000-0  18130-2 0  9994
2 62917  43.0018 186.4942 0001247 234.4014 125.6738 15.70891429 57964
Epoch: 2026-02-04T16:43Z
TLE epoch observation values (Epoch: 2026-02-04T16:43:40.149Z)
Latitude
0.00001°
Longitude
160.71707°
Altitude
356.609 km
Speed
7.697 km/s
True Right ascension
12h 25m 58s
True Declination
0° 00' 00"
Sunlit
Object was in full shadow at epoch
Visualization orbit readout
Latitude
Unknown
Longitude
Unknown
Altitude
Unknown
Speed
Unknown
Apparent Right ascension
Unknown
Apparent Declination
Unknown
Sunlit
N/A
Visualization observer readout
Local Sidereal Time
14:07:18
Azimuth
Unknown
Elevation
Unknown
Doppler factor
Unknown
Orbital elements
Apogee altitude
359.169 km
Perigee altitude
357.489 km
Semi-major axis
6,736.466 km
Eccentricity
0.00012
Inclination
43.0018°
RAAN
186.4942°
Arg. of periapsis
234.4014°
True anomaly
125.68541°
Mean anomaly
125.6738°
Eccentric anomaly
125.6796°
Mean motion
3.9255 °/min
Orbital period
91.71 mins
BSTAR
0.001813
Loading maneuver chart data...
Computing Atmospheric mass density...
Loading historical data...
Loading historical data...
Loading historical data...
Loading historical data...
Loading historical data...
Loading historical data...
Loading historical data...

Documentation

Showing up to 5 results
|